BREEZE-KM DEB, 41722

Orbit data source: Space-Track

BREEZE-KM DEB, 41722 is space debris in LEO originally from a launch on Tue, 31 Mar 2015 UTC launched from the Plesetsk Missile And Space Complex (PKMTR). Debris objects in space refer to the collection of defunct objects orbiting the Earth. Examples of debris include non-operational satellites, rocket bodies, and fragments generated from explosions, collisions, or faulty payload assembly.

Loading next visibility...
Identifier
41722, 2015-020K
Orbit
LEO
Last TLE update
20 hours ago
Origin
Manufacturer
Khrunichev
Mission
Spacecraft
Bus & Motor
Unknown
Mass
Unknown
Launch date (UTC)
2015-03-31 (10 years ago)
Launch vehicle
Unknown
Launch site
Plesetsk Missile And Space Complex (PKMTR)
Object type
Payload
Rocket body
Debris
Shape & HBR
Unknown
Radar Cross Section
Small (<0.1 m²)

Expand to show TLE details & history

TLE from 20 hours ago
0 BREEZE-KM DEB
1 41722U 15020K   25181.53244208  .00000039  00000-0  13809-3 0  9995
2 41722  82.4904 127.5002 0178347 299.3784  58.9604 12.70514349447142
Epoch: 2025-06-30T12:46Z
TLE epoch observation values (Epoch: 2025-06-30T12:46:42.995Z)
Latitude
-0.00013°
Longitude
16.98014°
Altitude
1,313.068 km
Speed
7.233 km/s
True Right ascension
08h 30m 00s
True Declination
0° 00' 00"
Sunlit
Object was in daylight at epoch
Visualization orbit readout
Latitude
-82.23132°
Longitude
-89.5459°
Altitude
1,287.272 km
Speed
7.269 km/s
Apparent Right ascension
07h 55m 36s
Apparent Declination
-68° 14' 54"
Sunlit
Object is in daylight
Visualization observer readout
Local Sidereal Time
20:44:07
Azimuth
170.785° S
Elevation
-60.911°
Doppler factor
1
Orbital elements
Apogee altitude
1,515.47 km
Perigee altitude
1,238.843 km
Semi-major axis
7,755.294 km
Eccentricity
0.01783
Inclination
82.4904°
RAAN
127.5002°
Arg. of periapsis
299.3784°
True anomaly
Unknown
Mean anomaly
58.9604°
Eccentric anomaly
Unknown
Mean motion
3.17794 °/min
Orbital period
113.28 mins
BSTAR
0.00013809
Loading maneuver chart data...
Loading SW <> Apogee altitude chart data...
Loading historical data...
Loading historical data...
Loading historical data...
Loading historical data...
Loading historical data...
Loading historical data...
Loading historical data...

BREEZE-KM DEB Visibility forecast

Observer location: undefined°, undefined°

Span
Click to sort rows by Start time (UTC) header in descending order
Start Az.
Max El. time (UTC)
Max El. Az.
Max El.
End time (UTC)
End Az.
9 mins2025-07-01 10:13:53.624Z315.786° NNW2025-07-01 10:18:53.624Z278.952° WNW16.845°2025-07-01 10:22:53.624Z249.856° W
6 mins2025-07-01 19:11:53.624Z94.344° ESE2025-07-01 19:13:53.624Z78.537° E14.756°2025-07-01 19:17:53.624Z48.47° ENE
14 mins2025-07-01 21:00:53.624Z182.33° SSW2025-07-01 21:06:53.624Z123.088° SE44.877°2025-07-01 21:14:53.624Z8.933° NNE
9 mins2025-07-01 22:58:53.624Z266.495° W2025-07-01 23:02:53.624Z300.481° NW18.422°2025-07-01 23:07:53.624Z338.002° N
14 mins2025-07-02 06:58:53.624Z14.292° NNE2025-07-02 07:04:53.624Z66.883° ENE29.851°2025-07-02 07:12:53.624Z133.996° SE
13 mins2025-07-02 08:52:53.624Z339.331° N2025-07-02 08:59:53.624Z267.652° W38.374°2025-07-02 09:05:53.624Z203.552° SW
|